TimeEST,TemperatureF,Dew PointF,Humidity,Sea Level PressureIn,VisibilityMPH,Wind Direction,Wind SpeedMPH,Gust SpeedMPH,PrecipitationIn,Events,Conditions,WindDirDegrees,DateUTC
12:53 AM,66.0,63.0,90,30.12,10.0,ENE,3.5,-,N/A,,Overcast,70,2013-01-20 05:53:00
1:53 AM,64.9,63.0,93,30.11,10.0,ENE,3.5,-,N/A,,Overcast,70,2013-01-20 06:53:00
2:53 AM,64.9,63.0,93,30.11,10.0,ENE,8.1,-,N/A,,Overcast,60,2013-01-20 07:53:00
3:53 AM,64.9,63.0,93,30.11,10.0,NE,5.8,-,N/A,,Overcast,50,2013-01-20 08:53:00
4:05 AM,64.4,62.6,94,30.11,10.0,NE,5.8,-,N/A,,Overcast,40,2013-01-20 09:05:00
4:53 AM,64.9,63.0,93,30.11,10.0,ENE,3.5,-,N/A,,Overcast,70,2013-01-20 09:53:00
5:53 AM,64.0,63.0,96,30.11,10.0,ENE,4.6,-,N/A,,Overcast,70,2013-01-20 10:53:00
6:53 AM,64.9,63.0,93,30.12,9.0,ENE,4.6,-,N/A,,Overcast,60,2013-01-20 11:53:00
7:53 AM,64.9,63.0,93,30.15,10.0,NE,4.6,-,N/A,,Overcast,40,2013-01-20 12:53:00
8:53 AM,66.0,63.0,90,30.16,10.0,NE,5.8,-,N/A,,Overcast,40,2013-01-20 13:53:00
9:53 AM,69.1,64.0,84,30.17,10.0,ENE,3.5,-,N/A,,Overcast,70,2013-01-20 14:53:00
10:44 AM,69.8,64.4,83,30.14,10.0,ESE,6.9,-,N/A,,Overcast,110,2013-01-20 15:44:00
10:53 AM,70.0,64.0,81,30.15,10.0,Variable,3.5,-,N/A,,Overcast,0,2013-01-20 15:53:00
11:53 AM,75.0,64.9,71,30.12,10.0,Calm,Calm,-,N/A,,Scattered Clouds,0,2013-01-20 16:53:00
12:53 PM,77.0,63.0,62,30.09,10.0,Variable,3.5,-,N/A,,Overcast,0,2013-01-20 17:53:00
1:53 PM,78.1,62.1,58,30.05,10.0,NE,5.8,-,N/A,,Overcast,40,2013-01-20 18:53:00
2:53 PM,77.0,62.1,60,30.04,10.0,ENE,3.5,-,N/A,,Mostly Cloudy,70,2013-01-20 19:53:00
3:53 PM,77.0,62.1,60,30.04,10.0,North,9.2,-,N/A,,Scattered Clouds,10,2013-01-20 20:53:00
4:53 PM,75.9,62.1,62,30.04,10.0,NE,4.6,-,N/A,,Clear,50,2013-01-20 21:53:00
5:53 PM,73.0,64.0,73,30.05,10.0,NW,5.8,-,N/A,,Clear,310,2013-01-20 22:53:00
6:53 PM,68.0,64.0,87,30.06,10.0,NNW,4.6,-,N/A,,Scattered Clouds,330,2013-01-20 23:53:00
7:53 PM,66.9,64.0,90,30.06,10.0,NW,3.5,-,N/A,,Clear,320,2013-01-21 00:53:00
8:53 PM,68.0,64.0,87,30.08,10.0,NE,3.5,-,N/A,,Mostly Cloudy,50,2013-01-21 01:53:00
9:23 PM,69.8,64.4,83,30.07,10.0,ENE,5.8,-,N/A,,Overcast,60,2013-01-21 02:23:00
9:53 PM,69.1,63.0,81,30.08,10.0,ENE,5.8,-,N/A,,Overcast,60,2013-01-21 02:53:00
10:53 PM,68.0,63.0,84,30.09,10.0,ENE,6.9,-,N/A,,Overcast,60,2013-01-21 03:53:00
11:53 PM,66.9,63.0,87,30.08,10.0,ENE,6.9,-,N/A,,Overcast,60,2013-01-21 04:53:00